| time (UTC) | temp C | wind direction | speed KPH | gust KPH | rain 1hr cm | rain 24hr cm | rain mn cm | humidity % | barometer mb |
| 20260509102527 | 32 | 57 | 1.6 | 12.9 | 0.00 | 0.00 | 0.00 | 60 | 1009.7 |
| 20260509102022 | 32 | 295 | 6.4 | 12.9 | 0.00 | 0.00 | 0.00 | 60 | 1009.7 |
| 20260509101606 | 32 | 24 | 4.8 | 17.7 | 0.00 | 0.00 | 0.00 | 58 | 1009.6 |
| 20260509101026 | 32 | 124 | 11.3 | 17.7 | 0.00 | 0.00 | 0.00 | 59 | 1009.1 |
| 20260509100523 | 32 | 107 | 12.9 | 19.3 | 0.00 | 0.00 | 0.00 | 58 | 1009.0 |
| 20260509100044 | 32 | 112 | 14.5 | 20.9 | 0.00 | 0.00 | 0.00 | 58 | 1008.9 |
| 20260509095521 | 32 | 115 | 12.9 | 22.5 | 0.00 | 0.00 | 0.00 | 58 | 1008.7 |
| 20260509095021 | 32 | 134 | 14.5 | 22.5 | 0.00 | 0.00 | 0.00 | 56 | 1008.7 |
| 20260509094541 | 33 | 110 | 14.5 | 22.5 | 0.00 | 0.00 | 0.00 | 56 | 1008.5 |
| 20260509094024 | 33 | 119 | 17.7 | 22.5 | 0.00 | 0.00 | 0.00 | 55 | 1008.4 |
| 20260509093523 | 33 | 130 | 16.1 | 25.7 | 0.00 | 0.00 | 0.00 | 54 | 1008.3 |
| 20260509093041 | 33 | 117 | 16.1 | 25.7 | 0.00 | 0.00 | 0.00 | 53 | 1008.4 |
| 20260509092520 | 33 | 115 | 17.7 | 25.7 | 0.00 | 0.00 | 0.00 | 52 | 1008.3 |
| 20260509092021 | 34 | 115 | 19.3 | 25.7 | 0.00 | 0.00 | 0.00 | 52 | 1008.2 |
| 20260509091543 | 34 | 115 | 17.7 | 25.7 | 0.00 | 0.00 | 0.00 | 52 | 1008.1 |
| 20260509091021 | 35 | 123 | 19.3 | 25.7 | 0.00 | 0.00 | 0.00 | 52 | 1007.9 |
| 20260509090522 | 35 | 123 | 17.7 | 27.4 | 0.00 | 0.00 | 0.00 | 51 | 1007.9 |
| 20260509090041 | 35 | 128 | 19.3 | 27.4 | 0.00 | 0.00 | 0.00 | 50 | 1007.9 |
| 20260509085521 | 35 | 118 | 16.1 | 25.7 | 0.00 | 0.00 | 0.00 | 50 | 1007.9 |
| 20260509085023 | 35 | 114 | 12.9 | 24.1 | 0.00 | 0.00 | 0.00 | 51 | 1007.8 |
| 20260509084537 | 35 | 118 | 12.9 | 19.3 | 0.00 | 0.00 | 0.00 | 48 | 1007.8 |
| 20260509084023 | 35 | 129 | 12.9 | 19.3 | 0.00 | 0.00 | 0.00 | 49 | 1007.9 |
| 20260509083521 | 35 | 136 | 12.9 | 19.3 | 0.00 | 0.00 | 0.00 | 49 | 1007.8 |
| 20260509083038 | 35 | 137 | 14.5 | 24.1 | 0.00 | 0.00 | 0.00 | 47 | 1007.8 |
| 20260509082522 | 35 | 135 | 16.1 | 24.1 | 0.00 | 0.00 | 0.00 | 48 | 1007.7 |
| 20260509082022 | 35 | 145 | 11.3 | 17.7 | 0.00 | 0.00 | 0.00 | 51 | 1007.6 |
| 20260509081543 | 36 | 143 | 11.3 | 17.7 | 0.00 | 0.00 | 0.00 | 48 | 1007.7 |
| 20260509081021 | 35 | 125 | 11.3 | 17.7 | 0.00 | 0.00 | 0.00 | 48 | 1007.5 |
| 20260509080523 | 36 | 159 | 6.4 | 16.1 | 0.00 | 0.00 | 0.00 | 51 | 1007.5 |
| 20260509080039 | 35 | 96 | 9.7 | 16.1 | 0.00 | 0.00 | 0.00 | 50 | 1007.5 |
| 20260509075521 | 35 | 135 | 8.0 | 19.3 | 0.00 | 0.00 | 0.00 | 55 | 1007.6 |
| 20260509075021 | 35 | 166 | 8.0 | 24.1 | 0.00 | 0.00 | 0.00 | 51 | 1007.6 |
| 20260509074545 | 35 | 127 | 11.3 | 25.7 | 0.00 | 0.00 | 0.00 | 50 | 1007.5 |
| 20260509074021 | 36 | 154 | 12.9 | 25.7 | 0.00 | 0.00 | 0.00 | 52 | 1007.5 |
| 20260509073521 | 36 | 157 | 11.3 | 19.3 | 0.00 | 0.00 | 0.00 | 49 | 1007.5 |
| 20260509073033 | 36 | 160 | 3.2 | 14.5 | 0.00 | 0.00 | 0.00 | 49 | 1007.5 |
| 20260509072522 | 36 | 122 | 8.0 | 16.1 | 0.00 | 0.00 | 0.00 | 48 | 1007.5 |
| 20260509072020 | 36 | 128 | 6.4 | 17.7 | 0.00 | 0.00 | 0.00 | 51 | 1007.6 |
| 20260509071553 | 36 | 159 | 11.3 | 17.7 | 0.00 | 0.00 | 0.00 | 51 | 1007.7 |
| 20260509071022 | 36 | 182 | 8.0 | 14.5 | 0.00 | 0.00 | 0.00 | 49 | 1007.7 |
| 20260509070521 | 36 | 133 | 8.0 | 14.5 | 0.00 | 0.00 | 0.00 | 49 | 1007.8 |
| 20260509070042 | 36 | 104 | 9.7 | 14.5 | 0.00 | 0.00 | 0.00 | 52 | 1007.9 |
| 20260509065523 | 36 | 320 | 3.2 | 12.9 | 0.00 | 0.00 | 0.00 | 46 | 1007.9 |
| 20260509065025 | 36 | 165 | 6.4 | 12.9 | 0.00 | 0.00 | 0.00 | 53 | 1008.0 |
| 20260509064543 | 36 | 247 | 3.2 | 14.5 | 0.00 | 0.00 | 0.00 | 49 | 1008.1 |
| 20260509064027 | 36 | 156 | 9.7 | 14.5 | 0.00 | 0.00 | 0.00 | 46 | 1008.2 |
| 20260509063520 | 36 | 153 | 3.2 | 17.7 | 0.00 | 0.00 | 0.00 | 50 | 1008.2 |
| 20260509063036 | 36 | 142 | 8.0 | 19.3 | 0.00 | 0.00 | 0.00 | 52 | 1008.2 |
| 20260509062525 | 36 | 108 | 11.3 | 19.3 | 0.00 | 0.00 | 0.00 | 48 | 1008.2 |
| 20260509062026 | 36 | 112 | 8.0 | 14.5 | 0.00 | 0.00 | 0.00 | 51 | 1008.3 |
| 20260509061543 | 36 | 0 | 1.6 | 11.3 | 0.00 | 0.00 | 0.00 | 48 | 1008.3 |
| 20260509061030 | 36 | 98 | 6.4 | 11.3 | 0.00 | 0.00 | 0.00 | 50 | 1008.5 |
| 20260509060522 | 36 | 293 | 1.6 | 12.9 | 0.00 | 0.00 | 0.00 | 48 | 1008.5 |
| 20260509060041 | 36 | 123 | 4.8 | 12.9 | 0.00 | 0.00 | 0.00 | 48 | 1008.7 |
| 20260509055521 | 36 | 265 | 1.6 | 9.7 | 0.00 | 0.00 | 0.00 | 49 | 1008.8 |
| 20260509055023 | 36 | 173 | 4.8 | 9.7 | 0.00 | 0.00 | 0.00 | 48 | 1008.9 |
| 20260509054548 | 35 | 342 | 4.8 | 11.3 | 0.00 | 0.00 | 0.00 | 48 | 1009.0 |
| 20260509054023 | 35 | 148 | 6.4 | 12.9 | 0.00 | 0.00 | 0.00 | 52 | 1009.1 |
| 20260509053525 | 36 | 138 | 6.4 | 16.1 | 0.00 | 0.00 | 0.00 | 54 | 1009.1 |
| 20260509053040 | 35 | 74 | 8.0 | 16.1 | 0.00 | 0.00 | 0.00 | 52 | 1009.2 |
| 20260509052521 | 35 | 94 | 4.8 | 11.3 | 0.00 | 0.00 | 0.00 | 52 | 1009.2 |
| 20260509052023 | 35 | 144 | 4.8 | 11.3 | 0.00 | 0.00 | 0.00 | 54 | 1009.4 |
| 20260509051539 | 35 | 159 | 6.4 | 12.9 | 0.00 | 0.00 | 0.00 | 52 | 1009.5 |
| 20260509051021 | 35 | 213 | 9.7 | 12.9 | 0.00 | 0.00 | 0.00 | 53 | 1009.6 |
| 20260509050521 | 35 | 185 | 3.2 | 11.3 | 0.00 | 0.00 | 0.00 | 58 | 1009.5 |
| 20260509050045 | 35 | 168 | 6.4 | 11.3 | 0.00 | 0.00 | 0.00 | 55 | 1009.8 |
| 20260509045525 | 35 | 231 | 1.6 | 8.0 | 0.00 | 0.00 | 0.00 | 54 | 1009.9 |
| 20260509045021 | 36 | 360 | 4.8 | 12.9 | 0.00 | 0.00 | 0.00 | 52 | 1009.9 |
| 20260509044542 | 35 | 84 | 3.2 | 16.1 | 0.00 | 0.00 | 0.00 | 53 | 1010.1 |
| 20260509044022 | 35 | 101 | 8.0 | 17.7 | 0.00 | 0.00 | 0.00 | 54 | 1010.3 |
| 20260509043522 | 35 | 78 | 11.3 | 17.7 | 0.00 | 0.00 | 0.00 | 56 | 1010.4 |
| 20260509043040 | 35 | 155 | 1.6 | 9.7 | 0.00 | 0.00 | 0.00 | 54 | 1010.6 |
| 20260509042523 | 34 | 169 | 4.8 | 16.1 | 0.00 | 0.00 | 0.00 | 60 | 1010.7 |
| 20260509042028 | 34 | 155 | 4.8 | 16.1 | 0.00 | 0.00 | 0.00 | 56 | 1010.8 |
| 20260509041607 | 34 | 154 | 3.2 | 9.7 | 0.00 | 0.00 | 0.00 | 54 | 1010.9 |
| 20260509041024 | 33 | 132 | 1.6 | 12.9 | 0.00 | 0.00 | 0.00 | 58 | 1010.9 |
| 20260509040523 | 33 | 192 | 6.4 | 12.9 | 0.00 | 0.00 | 0.00 | 57 | 1011.0 |
| 20260509040039 | 33 | 138 | 8.0 | 12.9 | 0.00 | 0.00 | 0.00 | 59 | 1011.1 |
| 20260509035523 | 33 | 168 | 4.8 | 8.0 | 0.00 | 0.00 | 0.00 | 64 | 1011.2 |
| 20260509035022 | 33 | 194 | 3.2 | 11.3 | 0.00 | 0.00 | 0.00 | 66 | 1011.1 |
| 20260509034537 | 33 | 165 | 6.4 | 11.3 | 0.00 | 0.00 | 0.00 | 58 | 1011.2 |
| 20260509034021 | 34 | 165 | 4.8 | 9.7 | 0.00 | 0.00 | 0.00 | 59 | 1011.3 |
| 20260509033525 | 34 | 93 | 1.6 | 16.1 | 0.00 | 0.00 | 0.00 | 59 | 1011.5 |
| 20260509033040 | 33 | 111 | 8.0 | 17.7 | 0.00 | 0.00 | 0.00 | 57 | 1011.6 |
| 20260509032521 | 33 | 108 | 8.0 | 17.7 | 0.00 | 0.00 | 0.00 | 59 | 1011.6 |
| 20260509032024 | 33 | 186 | 4.8 | 32.2 | 0.00 | 0.00 | 0.00 | 61 | 1011.5 |
| 20260509031540 | 33 | 78 | 3.2 | 32.2 | 0.00 | 0.00 | 0.00 | 58 | 1011.7 |
| 20260509031023 | 33 | 130 | 8.0 | 24.1 | 0.00 | 0.00 | 0.00 | 59 | 1011.7 |
| 20260509030521 | 33 | 205 | 1.6 | 16.1 | 0.00 | 0.00 | 0.00 | 58 | 1011.8 |
| 20260509030039 | 33 | 115 | 4.8 | 14.5 | 0.00 | 0.00 | 0.00 | 59 | 1011.9 |
| 20260509025520 | 33 | 124 | 3.2 | 14.5 | 0.00 | 0.00 | 0.00 | 60 | 1012.0 |
| 20260509025023 | 33 | 103 | 8.0 | 19.3 | 0.00 | 0.00 | 0.00 | 60 | 1012.1 |
| 20260509024539 | 32 | 170 | 3.2 | 19.3 | 0.00 | 0.00 | 0.00 | 64 | 1012.1 |
| 20260509024025 | 33 | 126 | 8.0 | 17.7 | 0.00 | 0.00 | 0.00 | 61 | 1012.0 |
| 20260509023525 | 32 | 157 | 9.7 | 12.9 | 0.00 | 0.00 | 0.00 | 60 | 1012.1 |
| 20260509023103 | 32 | 135 | 3.2 | 11.3 | 0.00 | 0.00 | 0.00 | 63 | 1012.1 |
| 20260509022523 | 32 | 163 | 3.2 | 12.9 | 0.00 | 0.00 | 0.00 | 62 | 1012.2 |
| 20260509022021 | 32 | 161 | 6.4 | 12.9 | 0.00 | 0.00 | 0.00 | 65 | 1012.2 |
| 20260509021541 | 32 | 152 | 8.0 | 12.9 | 0.00 | 0.00 | 0.00 | 63 | 1012.2 |
| 20260509021020 | 32 | 162 | 4.8 | 14.5 | 0.00 | 0.00 | 0.00 | 62 | 1012.2 |
| 20260509020522 | 32 | 110 | 6.4 | 14.5 | 0.00 | 0.00 | 0.00 | 61 | 1012.3 |
| 20260509020050 | 32 | 90 | 6.4 | 12.9 | 0.00 | 0.00 | 0.00 | 63 | 1012.3 |
| 20260509015522 | 32 | 98 | 3.2 | 8.0 | 0.00 | 0.00 | 0.00 | 63 | 1012.4 |
| 20260509015026 | 32 | 170 | 4.8 | 11.3 | 0.00 | 0.00 | 0.00 | 65 | 1012.4 |
| 20260509014540 | 31 | 167 | 6.4 | 12.9 | 0.00 | 0.00 | 0.00 | 65 | 1012.5 |
| 20260509014020 | 31 | 169 | 8.0 | 16.1 | 0.00 | 0.00 | 0.00 | 66 | 1012.5 |
| 20260509013521 | 31 | 156 | 8.0 | 16.1 | 0.00 | 0.00 | 0.00 | 68 | 1012.5 |
| 20260509013043 | 31 | 207 | 8.0 | 11.3 | 0.00 | 0.00 | 0.00 | 65 | 1012.5 |
| 20260509012525 | 31 | 177 | 4.8 | 11.3 | 0.00 | 0.00 | 0.00 | 67 | 1012.6 |
| 20260509012021 | 31 | 221 | 3.2 | 8.0 | 0.00 | 0.00 | 0.00 | 70 | 1012.7 |
| 20260509011537 | 31 | 222 | 3.2 | 8.0 | 0.00 | 0.00 | 0.00 | 68 | 1012.7 |
| 20260509011023 | 31 | 277 | 3.2 | 6.4 | 0.00 | 0.00 | 0.00 | 69 | 1012.7 |
| 20260509010525 | 31 | 165 | 3.2 | 6.4 | 0.00 | 0.00 | 0.00 | 69 | 1012.7 |
| 20260509010042 | 30 | 195 | 3.2 | 8.0 | 0.00 | 0.00 | 0.00 | 68 | 1012.8 |
| 20260509005524 | 30 | 182 | 3.2 | 11.3 | 0.00 | 0.00 | 0.00 | 73 | 1012.7 |
| 20260509005020 | 30 | 203 | 4.8 | 11.3 | 0.00 | 0.00 | 0.00 | 73 | 1012.5 |
| 20260509004542 | 30 | 173 | 8.0 | 11.3 | 0.00 | 0.00 | 0.00 | 71 | 1012.5 |
| 20260509004021 | 30 | 160 | 1.6 | 6.4 | 0.00 | 0.00 | 0.00 | 72 | 1012.3 |
| 20260509003522 | 30 | 148 | 4.8 | 8.0 | 0.00 | 0.00 | 0.00 | 69 | 1012.3 |
| 20260509003039 | 30 | 158 | 1.6 | 9.7 | 0.00 | 0.00 | 0.00 | 69 | 1012.3 |
| 20260509002521 | 30 | 151 | 6.4 | 9.7 | 0.00 | 0.00 | 0.00 | 69 | 1012.3 |
| 20260509002021 | 30 | 0 | 0.0 | 3.2 | 0.00 | 0.00 | 0.00 | 74 | 1012.3 |
| 20260509001536 | 29 | 171 | 1.6 | 4.8 | 0.00 | 0.00 | 0.00 | 74 | 1012.3 |
| 20260509001022 | 29 | 242 | 3.2 | 6.4 | 0.00 | 0.00 | 0.00 | 74 | 1012.3 |
| 20260509000521 | 29 | 198 | 3.2 | 6.4 | 0.00 | 0.00 | 0.00 | 74 | 1012.2 |
| 20260509000043 | 28 | 229 | 3.2 | 4.8 | 0.00 | 0.00 | 0.00 | 74 | 1012.2 |
| 20260508235522 | 28 | 202 | 3.2 | 4.8 | 0.00 | 0.00 | 0.00 | 76 | 1012.2 |
| 20260508235021 | 28 | 212 | 3.2 | 4.8 | 0.00 | 0.00 | 0.00 | 79 | 1012.2 |
| 20260508234541 | 28 | 222 | 3.2 | 4.8 | 0.00 | 0.00 | 0.00 | 80 | 1012.1 |
| 20260508234023 | 28 | 232 | 3.2 | 4.8 | 0.00 | 0.00 | 0.00 | 79 | 1012.1 |
| 20260508233523 | 28 | 202 | 0.0 | 1.6 | 0.00 | 0.00 | 0.00 | 78 | 1012.0 |
| 20260508233039 | 27 | 0 | 0.0 | 0.0 | 0.00 | 0.00 | 0.00 | 80 | 1012.1 |
| 20260508232520 | 27 | 0 | 0.0 | 1.6 | 0.00 | 0.00 | 0.00 | 82 | 1012.0 |
| 20260508232022 | 27 | 0 | 0.0 | 3.2 | 0.00 | 0.00 | 0.00 | 81 | 1012.1 |
| 20260508231537 | 26 | 259 | 0.0 | 3.2 | 0.00 | 0.00 | 0.00 | 84 | 1012.0 |
| 20260508231023 | 26 | 259 | 0.0 | 1.6 | 0.00 | 0.00 | 0.00 | 83 | 1012.0 |
| 20260508230523 | 26 | 259 | 0.0 | 3.2 | 0.00 | 0.00 | 0.00 | 82 | 1012.0 |
| 20260508230041 | 26 | 259 | 1.6 | 3.2 | 0.00 | 0.00 | 0.00 | 83 | 1011.8 |
| 20260508225521 | 26 | 252 | 1.6 | 3.2 | 0.00 | 0.00 | 0.00 | 83 | 1011.8 |
| 20260508225025 | 26 | 0 | 0.0 | 3.2 | 0.00 | 0.00 | 0.00 | 83 | 1011.7 |
| 20260508224535 | 26 | 0 | 0.0 | 3.2 | 0.00 | 0.00 | 0.00 | 83 | 1011.5 |
| 20260508224023 | 26 | 86 | 0.0 | 3.2 | 0.00 | 0.00 | 0.00 | 84 | 1011.5 |
| 20260508223525 | 26 | 0 | 0.0 | 3.2 | 0.00 | 0.00 | 0.00 | 85 | 1011.4 |
| 20260508223040 | 25 | 86 | 0.0 | 3.2 | 0.00 | 0.00 | 0.00 | 85 | 1011.4 |
| 20260508222521 | 25 | 0 | 0.0 | 3.2 | 0.00 | 0.00 | 0.00 | 86 | 1011.3 |
| 20260508222024 | 25 | 84 | 1.6 | 3.2 | 0.00 | 0.00 | 0.00 | 86 | 1011.2 |
| 20260508221538 | 25 | 0 | 0.0 | 0.0 | 0.00 | 0.00 | 0.00 | 86 | 1011.1 |
| 20260508221024 | 25 | 0 | 0.0 | 0.0 | 0.00 | 0.00 | 0.00 | 87 | 1011.1 |
| 20260508220523 | 25 | 0 | 0.0 | 0.0 | 0.00 | 0.00 | 0.00 | 87 | 1011.1 |
| 20260508220035 | 24 | 0 | 0.0 | 0.0 | 0.00 | 0.00 | 0.00 | 88 | 1011.0 |
| 20260508215531 | 24 | 0 | 0.0 | 1.6 | 0.00 | 0.00 | 0.00 | 88 | 1011.0 |
| 20260508215021 | 24 | 0 | 0.0 | 1.6 | 0.00 | 0.00 | 0.00 | 88 | 1010.9 |
| 20260508214536 | 24 | 0 | 0.0 | 1.6 | 0.00 | 0.00 | 0.00 | 88 | 1010.8 |
| 20260508214021 | 24 | 0 | 0.0 | 0.0 | 0.00 | 0.00 | 0.00 | 88 | 1010.8 |
| 20260508213521 | 25 | 0 | 0.0 | 3.2 | 0.00 | 0.00 | 0.00 | 87 | 1010.8 |
| 20260508213041 | 25 | 0 | 0.0 | 4.8 | 0.00 | 0.00 | 0.00 | 86 | 1010.8 |
| 20260508212523 | 25 | 9 | 1.6 | 6.4 | 0.00 | 0.00 | 0.00 | 86 | 1010.8 |
| 20260508212023 | 25 | 17 | 3.2 | 6.4 | 0.00 | 0.00 | 0.00 | 86 | 1010.7 |
| 20260508211542 | 25 | 36 | 3.2 | 6.4 | 0.00 | 0.00 | 0.00 | 86 | 1010.7 |
| 20260508211023 | 24 | 0 | 0.0 | 0.0 | 0.00 | 0.00 | 0.00 | 87 | 1010.7 |
| 20260508210523 | 24 | 0 | 0.0 | 0.0 | 0.00 | 0.00 | 0.00 | 87 | 1010.7 |
| 20260508210040 | 24 | 0 | 0.0 | 0.0 | 0.00 | 0.00 | 0.00 | 88 | 1010.7 |
| 20260508205520 | 24 | 0 | 0.0 | 0.0 | 0.00 | 0.00 | 0.00 | 88 | 1010.7 |
| 20260508205024 | 25 | 0 | 0.0 | 0.0 | 0.00 | 0.00 | 0.00 | 88 | 1010.7 |
| 20260508204544 | 25 | 0 | 0.0 | 0.0 | 0.00 | 0.00 | 0.00 | 88 | 1010.6 |
| 20260508204027 | 25 | 0 | 0.0 | 0.0 | 0.00 | 0.00 | 0.00 | 88 | 1010.6 |
| 20260508203523 | 25 | 0 | 0.0 | 0.0 | 0.00 | 0.00 | 0.00 | 88 | 1010.6 |
| 20260508203039 | 25 | 0 | 0.0 | 0.0 | 0.00 | 0.00 | 0.00 | 88 | 1010.6 |
| 20260508202524 | 25 | 0 | 0.0 | 0.0 | 0.00 | 0.00 | 0.00 | 87 | 1010.6 |
| 20260508202021 | 25 | 0 | 0.0 | 0.0 | 0.00 | 0.00 | 0.00 | 86 | 1010.5 |
| 20260508201539 | 25 | 0 | 0.0 | 0.0 | 0.00 | 0.00 | 0.00 | 86 | 1010.5 |
| 20260508201023 | 25 | 0 | 0.0 | 0.0 | 0.00 | 0.00 | 0.00 | 85 | 1010.4 |
| 20260508200524 | 25 | 0 | 0.0 | 0.0 | 0.00 | 0.00 | 0.00 | 84 | 1010.4 |
| 20260508200100 | 25 | 0 | 0.0 | 0.0 | 0.00 | 0.00 | 0.00 | 84 | 1010.3 |
| 20260508195522 | 25 | 0 | 0.0 | 0.0 | 0.00 | 0.00 | 0.00 | 83 | 1010.3 |
| 20260508195023 | 25 | 0 | 0.0 | 0.0 | 0.00 | 0.00 | 0.00 | 83 | 1010.3 |
| 20260508194538 | 25 | 0 | 0.0 | 0.0 | 0.00 | 0.00 | 0.00 | 83 | 1010.2 |
| 20260508194022 | 25 | 0 | 0.0 | 0.0 | 0.00 | 0.00 | 0.00 | 83 | 1010.3 |
| 20260508193522 | 25 | 0 | 0.0 | 0.0 | 0.00 | 0.00 | 0.00 | 83 | 1010.4 |
| 20260508193046 | 25 | 0 | 0.0 | 0.0 | 0.00 | 0.00 | 0.00 | 84 | 1010.3 |
| 20260508192521 | 25 | 0 | 0.0 | 0.0 | 0.00 | 0.00 | 0.00 | 84 | 1010.2 |
| 20260508192023 | 25 | 0 | 0.0 | 0.0 | 0.00 | 0.00 | 0.00 | 84 | 1010.2 |
| 20260508191539 | 25 | 0 | 0.0 | 0.0 | 0.00 | 0.00 | 0.00 | 85 | 1010.2 |
| 20260508191021 | 25 | 0 | 0.0 | 0.0 | 0.00 | 0.00 | 0.00 | 85 | 1010.3 |
| 20260508190520 | 25 | 0 | 0.0 | 0.0 | 0.00 | 0.00 | 0.00 | 85 | 1010.4 |
| 20260508190035 | 25 | 0 | 0.0 | 0.0 | 0.00 | 0.00 | 0.00 | 85 | 1010.4 |
| 20260508185521 | 25 | 0 | 0.0 | 0.0 | 0.00 | 0.00 | 0.00 | 85 | 1010.4 |
| 20260508185026 | 25 | 0 | 0.0 | 0.0 | 0.00 | 0.00 | 0.00 | 85 | 1010.4 |
| 20260508184543 | 25 | 0 | 0.0 | 0.0 | 0.00 | 0.00 | 0.00 | 85 | 1010.4 |
| 20260508184020 | 25 | 0 | 0.0 | 0.0 | 0.00 | 0.00 | 0.00 | 85 | 1010.4 |
| 20260508183522 | 25 | 0 | 0.0 | 0.0 | 0.00 | 0.00 | 0.00 | 85 | 1010.5 |
| 20260508183042 | 25 | 0 | 0.0 | 0.0 | 0.00 | 0.00 | 0.00 | 85 | 1010.6 |
| 20260508182523 | 25 | 0 | 0.0 | 0.0 | 0.00 | 0.00 | 0.00 | 86 | 1010.5 |
| 20260508182020 | 25 | 0 | 0.0 | 0.0 | 0.00 | 0.00 | 0.00 | 87 | 1010.5 |
| 20260508181546 | 25 | 0 | 0.0 | 0.0 | 0.00 | 0.00 | 0.00 | 87 | 1010.5 |
| 20260508181023 | 25 | 0 | 0.0 | 0.0 | 0.00 | 0.00 | 0.00 | 86 | 1010.4 |
| 20260508180522 | 25 | 0 | 0.0 | 0.0 | 0.00 | 0.00 | 0.00 | 85 | 1010.4 |
| 20260508180038 | 26 | 0 | 0.0 | 0.0 | 0.00 | 0.00 | 0.00 | 85 | 1010.5 |
| 20260508175521 | 26 | 0 | 0.0 | 0.0 | 0.00 | 0.00 | 0.00 | 84 | 1010.6 |
| 20260508175023 | 26 | 0 | 0.0 | 0.0 | 0.00 | 0.00 | 0.00 | 83 | 1010.7 |
| 20260508174539 | 26 | 0 | 0.0 | 0.0 | 0.00 | 0.00 | 0.00 | 83 | 1010.6 |
| 20260508174023 | 26 | 0 | 0.0 | 0.0 | 0.00 | 0.00 | 0.00 | 83 | 1010.6 |
| 20260508173521 | 26 | 0 | 0.0 | 0.0 | 0.00 | 0.00 | 0.00 | 84 | 1010.7 |
| 20260508173041 | 26 | 0 | 0.0 | 0.0 | 0.00 | 0.00 | 0.00 | 82 | 1010.7 |
| 20260508172525 | 26 | 0 | 0.0 | 0.0 | 0.00 | 0.00 | 0.00 | 83 | 1010.7 |
| 20260508172022 | 26 | 0 | 0.0 | 0.0 | 0.00 | 0.00 | 0.00 | 82 | 1010.7 |
| 20260508171539 | 26 | 0 | 0.0 | 0.0 | 0.00 | 0.00 | 0.00 | 81 | 1010.7 |
| 20260508171022 | 26 | 0 | 0.0 | 0.0 | 0.00 | 0.00 | 0.00 | 81 | 1010.8 |
| 20260508170522 | 26 | 0 | 0.0 | 0.0 | 0.00 | 0.00 | 0.00 | 80 | 1010.9 |
| 20260508170039 | 26 | 0 | 0.0 | 0.0 | 0.00 | 0.00 | 0.00 | 80 | 1011.0 |
| 20260508165522 | 26 | 0 | 0.0 | 0.0 | 0.00 | 0.00 | 0.00 | 81 | 1011.0 |
| 20260508165022 | 26 | 0 | 0.0 | 0.0 | 0.00 | 0.00 | 0.00 | 81 | 1011.0 |
| 20260508164542 | 26 | 0 | 0.0 | 0.0 | 0.00 | 0.00 | 0.00 | 80 | 1011.1 |
| 20260508164022 | 26 | 0 | 0.0 | 0.0 | 0.00 | 0.00 | 0.00 | 81 | 1011.1 |
| 20260508163521 | 26 | 0 | 0.0 | 0.0 | 0.00 | 0.00 | 0.00 | 81 | 1011.2 |
| 20260508163038 | 26 | 0 | 0.0 | 0.0 | 0.00 | 0.00 | 0.00 | 80 | 1011.2 |
| 20260508162520 | 27 | 0 | 0.0 | 0.0 | 0.00 | 0.00 | 0.00 | 81 | 1011.2 |
| 20260508162024 | 27 | 0 | 0.0 | 0.0 | 0.00 | 0.00 | 0.00 | 80 | 1011.1 |
| 20260508161543 | 27 | 0 | 0.0 | 0.0 | 0.00 | 0.00 | 0.00 | 79 | 1011.1 |
| 20260508161021 | 27 | 0 | 0.0 | 0.0 | 0.00 | 0.00 | 0.00 | 80 | 1011.2 |
| 20260508160521 | 27 | 0 | 0.0 | 0.0 | 0.00 | 0.00 | 0.00 | 77 | 1011.2 |
| 20260508160038 | 27 | 0 | 0.0 | 0.0 | 0.00 | 0.00 | 0.00 | 77 | 1011.3 |
| 20260508155524 | 27 | 0 | 0.0 | 0.0 | 0.00 | 0.00 | 0.00 | 75 | 1011.4 |
| 20260508155024 | 27 | 0 | 0.0 | 0.0 | 0.00 | 0.00 | 0.00 | 78 | 1011.5 |
| 20260508154602 | 27 | 0 | 0.0 | 0.0 | 0.00 | 0.00 | 0.00 | 77 | 1011.6 |
| 20260508154026 | 27 | 0 | 0.0 | 0.0 | 0.00 | 0.00 | 0.00 | 76 | 1011.7 |
| 20260508153524 | 27 | 0 | 0.0 | 0.0 | 0.00 | 0.00 | 0.00 | 75 | 1011.8 |
| 20260508153036 | 27 | 0 | 0.0 | 0.0 | 0.00 | 0.00 | 0.00 | 76 | 1011.7 |
| 20260508152523 | 27 | 0 | 0.0 | 0.0 | 0.00 | 0.00 | 0.00 | 79 | 1011.8 |
| 20260508152023 | 27 | 0 | 0.0 | 0.0 | 0.00 | 0.00 | 0.00 | 78 | 1011.8 |
| 20260508151540 | 27 | 0 | 0.0 | 0.0 | 0.00 | 0.00 | 0.00 | 77 | 1011.8 |
| 20260508151022 | 27 | 0 | 0.0 | 0.0 | 0.00 | 0.00 | 0.00 | 77 | 1011.9 |
| 20260508150523 | 27 | 0 | 0.0 | 0.0 | 0.00 | 0.00 | 0.00 | 78 | 1011.9 |
| 20260508150037 | 27 | 0 | 0.0 | 0.0 | 0.00 | 0.00 | 0.00 | 76 | 1011.8 |
| 20260508145522 | 27 | 0 | 0.0 | 0.0 | 0.00 | 0.00 | 0.00 | 78 | 1011.8 |
| 20260508145024 | 27 | 0 | 0.0 | 0.0 | 0.00 | 0.00 | 0.00 | 73 | 1011.8 |
| 20260508144554 | 28 | 0 | 0.0 | 0.0 | 0.00 | 0.00 | 0.00 | 73 | 1011.8 |
| 20260508144025 | 28 | 0 | 0.0 | 0.0 | 0.00 | 0.00 | 0.00 | 72 | 1011.8 |
| 20260508143525 | 28 | 0 | 0.0 | 0.0 | 0.00 | 0.00 | 0.00 | 73 | 1011.8 |
| 20260508143039 | 27 | 0 | 0.0 | 0.0 | 0.00 | 0.00 | 0.00 | 74 | 1011.9 |
| 20260508142525 | 27 | 0 | 0.0 | 0.0 | 0.00 | 0.00 | 0.00 | 74 | 1011.9 |
| 20260508142024 | 28 | 0 | 0.0 | 0.0 | 0.00 | 0.00 | 0.00 | 77 | 1011.9 |
| 20260508141539 | 27 | 0 | 0.0 | 0.0 | 0.00 | 0.00 | 0.00 | 74 | 1011.8 |
| 20260508141021 | 27 | 0 | 0.0 | 0.0 | 0.00 | 0.00 | 0.00 | 75 | 1011.8 |
| 20260508140523 | 27 | 0 | 0.0 | 0.0 | 0.00 | 0.00 | 0.00 | 75 | 1011.9 |
| 20260508140037 | 27 | 0 | 0.0 | 0.0 | 0.00 | 0.00 | 0.00 | 76 | 1011.9 |
| 20260508135524 | 27 | 0 | 0.0 | 0.0 | 0.00 | 0.00 | 0.00 | 74 | 1011.8 |
| 20260508135024 | 27 | 0 | 0.0 | 0.0 | 0.00 | 0.00 | 0.00 | 74 | 1011.8 |
| 20260508134551 | 27 | 0 | 0.0 | 0.0 | 0.00 | 0.00 | 0.00 | 78 | 1011.8 |
| 20260508134024 | 27 | 0 | 0.0 | 0.0 | 0.00 | 0.00 | 0.00 | 79 | 1011.8 |
| 20260508133524 | 27 | 0 | 0.0 | 1.6 | 0.00 | 0.00 | 0.00 | 76 | 1011.8 |
| 20260508133050 | 28 | 0 | 0.0 | 1.6 | 0.00 | 0.00 | 0.00 | 74 | 1011.7 |
| 20260508132524 | 28 | 0 | 0.0 | 0.0 | 0.00 | 0.00 | 0.00 | 74 | 1011.5 |
| 20260508132025 | 28 | 0 | 0.0 | 0.0 | 0.00 | 0.00 | 0.00 | 72 | 1011.6 |
| 20260508131545 | 28 | 0 | 0.0 | 3.2 | 0.00 | 0.00 | 0.00 | 73 | 1011.7 |
| 20260508131024 | 28 | 0 | 0.0 | 3.2 | 0.00 | 0.00 | 0.00 | 73 | 1011.8 |
| 20260508130523 | 28 | 352 | 0.0 | 3.2 | 0.00 | 0.00 | 0.00 | 72 | 1011.8 |
| 20260508130038 | 28 | 352 | 1.6 | 4.8 | 0.00 | 0.00 | 0.00 | 71 | 1011.8 |
| 20260508125523 | 28 | 352 | 1.6 | 4.8 | 0.00 | 0.00 | 0.00 | 71 | 1011.8 |
| 20260508125023 | 28 | 360 | 3.2 | 6.4 | 0.00 | 0.00 | 0.00 | 70 | 1011.7 |
| 20260508124538 | 28 | 17 | 3.2 | 6.4 | 0.00 | 0.00 | 0.00 | 69 | 1011.5 |
| 20260508124023 | 28 | 17 | 1.6 | 4.8 | 0.00 | 0.00 | 0.00 | 68 | 1011.4 |
| 20260508123524 | 28 | 101 | 3.2 | 6.4 | 0.00 | 0.00 | 0.00 | 68 | 1011.2 |
| 20260508123046 | 28 | 98 | 4.8 | 6.4 | 0.00 | 0.00 | 0.00 | 68 | 1011.1 |
| 20260508122523 | 28 | 105 | 4.8 | 9.7 | 0.00 | 0.00 | 0.00 | 68 | 1011.0 |
| 20260508122020 | 29 | 117 | 4.8 | 12.9 | 0.00 | 0.00 | 0.00 | 68 | 1010.9 |
| 20260508121545 | 29 | 105 | 6.4 | 12.9 | 0.00 | 0.00 | 0.00 | 67 | 1010.8 |
| 20260508121023 | 29 | 105 | 6.4 | 12.9 | 0.00 | 0.00 | 0.00 | 67 | 1010.7 |
| 20260508120522 | 29 | 114 | 8.0 | 12.9 | 0.00 | 0.00 | 0.00 | 67 | 1010.6 |
| 20260508120039 | 29 | 140 | 6.4 | 16.1 | 0.00 | 0.00 | 0.00 | 67 | 1010.5 |
| 20260508115521 | 29 | 113 | 9.7 | 16.1 | 0.00 | 0.00 | 0.00 | 66 | 1010.4 |
| 20260508115019 | 30 | 119 | 8.0 | 16.1 | 0.00 | 0.00 | 0.00 | 66 | 1010.4 |
| 20260508114538 | 30 | 107 | 9.7 | 17.7 | 0.00 | 0.00 | 0.00 | 65 | 1010.2 |
| 20260508114022 | 30 | 124 | 12.9 | 17.7 | 0.00 | 0.00 | 0.00 | 65 | 1010.1 |
| 20260508113523 | 30 | 121 | 11.3 | 17.7 | 0.00 | 0.00 | 0.00 | 64 | 1009.9 |
| 20260508113040 | 30 | 110 | 14.5 | 17.7 | 0.00 | 0.00 | 0.00 | 64 | 1009.9 |
| 20260508112523 | 30 | 126 | 11.3 | 17.7 | 0.00 | 0.00 | 0.00 | 64 | 1009.9 |
| 20260508112023 | 30 | 112 | 12.9 | 19.3 | 0.00 | 0.00 | 0.00 | 62 | 1009.8 |
| 20260508111538 | 30 | 124 | 12.9 | 20.9 | 0.00 | 0.00 | 0.00 | 62 | 1009.7 |
| 20260508111023 | 30 | 103 | 14.5 | 22.5 | 0.00 | 0.00 | 0.00 | 62 | 1009.6 |
| 20260508110523 | 30 | 136 | 14.5 | 22.5 | 0.00 | 0.00 | 0.00 | 61 | 1009.8 |
| 20260508110039 | 30 | 121 | 17.7 | 22.5 | 0.00 | 0.00 | 0.00 | 61 | 1009.7 |
| 20260508105523 | 31 | 119 | 16.1 | 22.5 | 0.00 | 0.00 | 0.00 | 61 | 1009.6 |
| 20260508105020 | 31 | 126 | 11.3 | 19.3 | 0.00 | 0.00 | 0.00 | 61 | 1009.6 |
| 20260508104538 | 31 | 128 | 11.3 | 20.9 | 0.00 | 0.00 | 0.00 | 62 | 1009.5 |
| 20260508104020 | 31 | 124 | 16.1 | 20.9 | 0.00 | 0.00 | 0.00 | 61 | 1009.4 |
| 20260508103520 | 31 | 113 | 14.5 | 20.9 | 0.00 | 0.00 | 0.00 | 61 | 1009.3 |
| 20260508103041 | 31 | 132 | 11.3 | 17.7 | 0.00 | 0.00 | 0.00 | 62 | 1009.2 |